{"data":{"norad_id":55651,"epoch":"2026-05-24T23:00:43.884000Z","epoch_age_seconds":71875,"freshness":"FRESH","line1":"1 55651U 23021Z   26144.95884125 -.00000073  00000+0  17012-5 0  9995","line2":"2 55651  69.9999 352.2426 0003004 266.8678  93.2138 14.98337013180216","mean_motion":14.98337013,"eccentricity":0.0003004,"inclination_deg":69.9999,"raan_deg":352.2426,"arg_perigee_deg":266.8678,"mean_anomaly_deg":93.2138,"bstar":1.7012e-6,"rev_number":18021,"period_min":96.106549294728,"perigee_km":569.94637247536,"apogee_km":574.12203533466,"semimajor_km":6950.171203905,"source":"CELESTRAK","updated_at":"2026-05-25T13:38:17.870110Z"}}